This demonstration page uses our WeatherBlox Daily Observations layout. Learn more.

Left ArrowRight Arrow

38.80484, -77.04692

Hourly Observations for April 4, 2016

Temp ( °F °C ) Dew Point ( °F °C ) Humidity (%) Winds ( mph kmh ) Pressure ( in mb ) Visibility ( mi km ) Precip ( " mm )
12:52 am 00:52 Clear 48 8.9 30 -1.1 50 50 S 10 17 29.94 1014 10 16 0.00 0.00
1:52 am 01:52 Clear 47 8.3 32 0 56 56 SSW 7 11 29.93 1014 10 16 0.00 0.00
2:52 am 02:52 Mostly Cloudy 50 10 34 1.1 54 54 S 12 19 29.92 1013 10 16 0.00 0.00
3:52 am 03:52 Mostly Clear 49 9.4 32 0 52 52 SSW 8 13 29.90 1012 10 16 0.00 0.00
4:52 am 04:52 Mostly Clear 50 10 32 0 50 50 SSW 10 17 29.88 1012 10 16 0.00 0.00
5:52 am 05:52 Mostly Clear 50 10 34 1.1 54 54 S 13 20 29.87 1012 10 16 0.00 0.00
6:52 am 06:52 Mostly Sunny 52 11.1 34 1.1 50 50 SSW 15 24 29.86 1011 10 16 0.00 0.00
7:52 am 07:52 Partly Cloudy 54 12.2 34 1.1 47 47 SSW 15 24 29.87 1012 10 16 0.00 0.00
8:52 am 08:52 Mostly Cloudy 58 14.4 35 1.7 42 42 SSW 21 33 29.86 1011 10 16 0.00 0.00
9:52 am 09:52 Mostly Cloudy 62 16.7 36 2.2 38 38 SSW 18 30 29.85 1011 10 16 0.00 0.00
10:52 am 10:52 Mostly Cloudy 66 18.9 35 1.7 32 32 SSW 17 28 29.83 1010 10 16 0.00 0.00
11:52 am 11:52 Mostly Cloudy 69 20.6 37 2.8 31 31 SSW 17 28 29.80 1009 10 16 0.00 0.00
12:52 pm 12:52 Mostly Cloudy 71 21.7 37 2.8 29 29 SSW 23 37 29.77 1008 10 16 0.00 0.00
1:52 pm 13:52 Mostly Cloudy 71 21.7 38 3.3 30 30 SSW 20 31 29.75 1008 10 16 0.00 0.00
2:52 pm 14:52 Cloudy 73 22.8 39 3.9 29 29 SSW 15 24 29.72 1007 10 16 0.00 0.00
3:26 pm 15:26 Cloudy 74 23.3 36 2.2 25 25 W 14 22 29.74 1007 10 16 0.00 0.00
3:52 pm 15:52 Cloudy 71 21.7 39 3.9 31 31 WNW 24 39 29.75 1008 10 16 0.00 0.00
4:01 pm 16:01 Cloudy 67 19.4 43 6.1 42 42 NNW 24 39 29.77 1008 10 16 0.00 0.00
4:18 pm 16:18 Cloudy with Light Rain 64 18 46 8 52 52 NNW 25 41 29.77 1008 10 16 0.00 0.00
4:52 pm 16:52 Cloudy with Light Rain 60 15.6 51 10.6 72 72 NNW 17 28 29.79 1009 10 16 0.00 0.03
5:52 pm 17:52 Cloudy with Light Rain 58 14.4 50 10 75 75 NNW 15 24 29.82 1010 10 16 0.02 0.51
6:28 pm 18:28 Cloudy with Rain 57 14 50 10 77 77 NNW 7 11 29.83 1010 6 10 0.00 0.00
6:52 pm 18:52 Cloudy with Light Rain 57 13.9 51 10.6 81 81 W 3 6 29.84 1011 9 14 0.05 1.27
7:52 pm 19:52 Mostly Cloudy 56 13.3 50 10 81 81 Calm 29.84 1011 10 16 0.00 0.03
8:52 pm 20:52 Partly Cloudy 57 13.9 48 8.9 72 72 NNW 16 26 29.88 1012 10 16 0.00 0.00
9:52 pm 21:52 Mostly Cloudy 54 12.2 44 6.7 69 69 NNW 24 39 29.94 1014 10 16 0.00 0.00
10:52 pm 22:52 Cloudy 46 7.8 38 3.3 73 73 NNE 24 39 29.99 1016 10 16 0.00 0.00
11:06 pm 23:06 Cloudy 45 7 36 2 71 71 NNE 22 35 30.00 1016 10 16 0.00 0.00
11:52 pm 23:52 Cloudy 43 6.1 34 1.1 71 71 N 18 30 30.03 1017 10 16 0.00 0.00

Powered by AerisWeather